www.pogodaiklimat.ru

Погода и климат >> Архив погоды >> Австралия >> Северная территория >> Раббит Флат


ПОГОДА в Раббит Флат

  • Прогноз погоды в Раббит Флат
  • Монитор погоды в Раббит Флат

АРХИВ ПОГОДЫ в Раббит Флат

Время (UTC), дата Ветер
(напр.,м/с)
 
Видим.   Явления Облачность Т
(С)
Тd
(С)
f
(%)
Тe
(С)
Тes
(С)
Комфортность P
(гПа)
Po
(гПа)
Тmin
(С)
Tmax
(С)
R
(мм)
R24
(мм)
S
(см)
23 11.02 З 5 н/о н/о +33.7 +12.1 27 +34 +34 очень
жарко
1007.9 970.6
00 12.02 З 5 н/о н/о +35.0 +12.0 25 +35 +35 очень
жарко
1007.8 970.5
02 12.02 ЮЗ 3 н/о н/о +39.9 +1.1 9 +36 +36 очень
жарко
1006.6 969.4 +24.0
03 12.02 С 4 н/о н/о +40.4 +2.9 10 +37 +37 очень
жарко
1006.2 969.0
05 12.02 В 3 н/о н/о +42.5 -0.5 7 +39 +39 очень
жарко
1004.2 967.1
06 12.02 З 4 н/о н/о +42.9 -0.2 7 +39 +39 очень
жарко
1004.0 966.8
08 12.02 Ю 6 н/о н/о +42.5 -2.6 6 +38 +38 очень
жарко
1002.8 965.7
09 12.02 ЮЗ 3 н/о н/о +42.4 -2.7 6 +38 +38 очень
жарко
1002.9 965.8
11 12.02 ЮЗ 4 н/о н/о +34.7 -0.1 11 +31 +31 жарко 1003.8 966.7
12 12.02 З 3 н/о н/о +33.7 +0.4 12 +30 +30 жарко 1004.1 966.9
14 12.02 З 3 н/о н/о +29.6 +2.0 17 +27 +27 жарко 1004.1 967.0 +44.1
15 12.02 СЗ 3 н/о н/о +29.5 +1.9 17 +27 +27 жарко 1004.4 967.2
17 12.02 З 6 н/о н/о +31.2 +8.8 25 +30 +30 жарко 1003.3 966.2
18 12.02 З 5 н/о н/о +31.1 +8.8 25 +30 +30 жарко 1003.4 966.3
20 12.02 З 5 н/о н/о +31.1 +12.5 32 +32 +32 жарко 1004.7 967.5
21 12.02 З 6 н/о н/о +31.6 +14.3 35 +33 +33 жарко 1004.8 967.6
23 12.02 Ю 6 н/о н/о +35.8 +5.1 15 +33 +33 жарко 1006.3 969.1
00 13.02 ЮВ 7 н/о н/о +37.0 +1.7 11 +34 +34 очень
жарко
1006.5 969.3
02 13.02 Ю 7 н/о н/о +41.6 -1.1 7 +38 +38 очень
жарко
1006.3 969.1 +29.3
03 13.02 Ю 8 н/о н/о +42.0 -0.9 7 +38 +38 очень
жарко
1006.1 968.9
05 13.02 ЮВ 6 н/о н/о +44.1 -1.5 6 +40 +40 очень
жарко
1004.3 967.2
06 13.02 ЮВ 6 н/о н/о +44.4 -1.3 6 +40 +40 очень
жарко
1004.0 966.8
08 13.02 Ю 7 н/о н/о +42.9 -2.3 6 +39 +39 очень
жарко
1003.6 966.5
09 13.02 Ю 9 н/о н/о +41.9 -0.9 7 +38 +38 очень
жарко
1003.9 966.7
11 13.02 Ю 4 н/о н/о +36.3 -0.2 10 +33 +33 жарко 1005.4 968.2
12 13.02 Ю 4 н/о н/о +35.6 +0.6 11 +32 +32 жарко 1005.8 968.6
14 13.02 ЮЗ 5 н/о н/о +33.1 -0.1 12 +30 +30 жарко 1006.3 969.1 +45.4
15 13.02 Ю 5 н/о н/о +32.9 -0.2 12 +30 +30 жарко 1006.1 968.9
17 13.02 Ю 5 н/о н/о +31.6 -1.2 12 +28 +28 жарко 1005.4 968.2
18 13.02 Ю 5 н/о н/о +30.7 -0.8 13 +28 +28 жарко 1005.4 968.2
20 13.02 Ю 3 н/о н/о +26.2 0.0 18 +24 +24 комфорт 1007.0 969.8
21 13.02 ЮВ 3 н/о н/о +26.1 +2.7 22 +25 +25 комфорт 1007.4 970.1
23 13.02 В 6 н/о н/о +32.8 +7.6 21 +31 +31 жарко 1009.1 971.8
00 14.02 В 7 н/о н/о +33.8 +10.4 24 +33 +33 жарко 1009.1 971.8
02 14.02 СВ 4 н/о н/о +38.4 +12.9 22 +38 +38 очень
жарко
1007.9 970.6 +25.9
03 14.02 С 5 н/о н/о +39.2 +12.9 21 +39 +39 очень
жарко
1007.2 969.9
05 14.02 В 4 н/о н/о +40.0 +7.4 14 +38 +38 очень
жарко
1005.0 967.8
06 14.02 З 3 н/о н/о +41.0 +7.1 13 +39 +39 очень
жарко
1004.6 967.4
08 14.02 ЮВ 4 н/о н/о +41.1 +7.2 13 +39 +39 очень
жарко
1003.8 966.7
09 14.02 ЮВ 4 н/о н/о +40.8 +5.8 12 +38 +38 очень
жарко
1004.2 967.0
11 14.02 ЮВ 6 н/о н/о +37.0 +5.1 14 +34 +34 очень
жарко
1006.6 969.4
12 14.02 ЮВ 7 н/о н/о +36.5 +3.7 13 +33 +33 жарко 1007.2 969.9
14 14.02 ЮВ 3 н/о н/о +32.2 +4.1 17 +30 +30 жарко 1008.9 971.6 +42.5
15 14.02 ЮВ 3 н/о н/о +31.6 +4.4 18 +29 +29 жарко 1008.8 971.5
17 14.02 В 3 н/о н/о +29.1 +5.9 23 +28 +28 жарко 1008.4 971.1
18 14.02 В 3 н/о н/о +28.9 +8.0 27 +28 +28 жарко 1008.2 970.9
20 14.02 СВ 7 н/о н/о +28.5 +18.9 56 +34 +34 очень
душно
1009.9 972.6
23 14.02 СВ 8 н/о н/о +30.3 +16.0 42 +33 +33 душно 1012.4 975.0
00 15.02 СВ 7 н/о н/о +31.0 +15.0 38 +33 +33 душно 1012.6 975.2
05 15.02 СВ 5 н/о н/о +37.9 +11.8 21 +37 +37 очень
жарко
1008.8 971.5
06 15.02 СВ 7 н/о н/о +38.6 +13.1 22 +39 +39 душно 1008.5 971.2
08 15.02 В 4 н/о н/о +38.2 +11.3 20 +37 +37 очень
жарко
1007.7 970.4
09 15.02 В 4 н/о н/о +37.4 +8.2 17 +35 +35 очень
жарко
1008.1 970.8
11 15.02 С 3 н/о н/о +33.9 +11.1 25 +33 +33 жарко 1009.8 972.5
12 15.02 С 3 н/о н/о +33.2 +12.8 29 +34 +34 очень
жарко
1010.3 972.9
14 15.02 СВ 2 н/о н/о +28.0 +12.0 37 +29 +29 жарко 1010.9 973.5 +39.6
15 15.02 С 2 н/о н/о +27.7 +12.5 39 +29 +29 жарко 1010.5 973.1
17 15.02 СЗ 3 н/о н/о +24.4 +12.4 47 +26 +26 жарко 1009.3 972.0
18 15.02 З 2 н/о н/о +24.4 +13.6 51 +27 +27 жарко 1009.4 972.1
20 15.02 В 4 н/о н/о +27.2 -1.7 15 +25 +25 комфорт 1011.2 973.8
21 15.02 В 4 н/о н/о +26.2 -0.8 17 +24 +24 комфорт 1011.4 974.0
23 15.02 СВ 8 н/о н/о +32.3 -7.8 7 +28 +28 жарко 1012.3 974.9
00 16.02 В 8 н/о н/о +33.5 -9.0 6 +29 +29 жарко 1012.3 974.9
02 16.02 СВ 6 н/о н/о +38.2 -5.6 6 +34 +34 очень
жарко
1010.4 973.0 +24.2
03 16.02 СВ 4 н/о н/о +38.2 -3.6 7 +34 +34 очень
жарко
1009.9 972.6
05 16.02 З 4 н/о н/о +40.1 -4.3 6 +36 +36 очень
жарко
1007.4 970.1
06 16.02 З 4 н/о н/о +40.9 -3.7 6 +37 +37 очень
жарко
1006.7 969.5
08 16.02 Ю 3 н/о н/о +40.6 -6.3 5 +36 +36 очень
жарко
1005.4 968.2
09 16.02 ЮВ 3 н/о н/о +40.2 -6.6 5 +36 +36 очень
жарко
1005.4 968.2
11 16.02 ЮВ 3 н/о н/о +31.6 -3.7 10 +28 +28 жарко 1007.1 969.9
12 16.02 ЮВ 3 н/о н/о +30.7 -3.1 11 +27 +27 жарко 1007.6 970.3
14 16.02 Ю 3 н/о н/о +27.8 -4.2 12 +25 +25 комфорт 1008.5 971.2 +42.1
15 16.02 штиль 0 н/о н/о +25.6 -3.8 14 +23 +23 комфорт 1008.2 970.9
17 16.02 Ю 4 н/о н/о +24.3 -1.5 18 +23 +23 комфорт 1007.1 969.9
18 16.02 С 5 н/о н/о +24.0 -2.5 17 +22 +22 комфорт 1007.8 970.5
20 16.02 СЗ 3 н/о н/о +21.5 -1.1 22 +21 +21 комфорт 1007.8 970.5
21 16.02 СЗ 2 н/о н/о +21.6 -1.0 22 +21 +21 комфорт 1008.0 970.7
23 16.02 ЮЗ 2 н/о н/о +32.5 +12.7 30 +33 +33 жарко 1009.0 971.7
00 17.02 З 3 н/о н/о +33.9 +13.4 29 +35 +35 очень
жарко
1009.1 971.8
02 17.02 С 4 н/о н/о +38.7 +3.0 11 +35 +35 очень
жарко
1007.7 970.4 +20.8
03 17.02 З 3 н/о н/о +39.3 +2.1 10 +36 +36 очень
жарко
1007.3 970.0
05 17.02 ЮВ 4 н/о н/о +40.9 +1.8 9 +37 +37 очень
жарко
1004.5 967.4
06 17.02 В 4 н/о н/о +41.6 +0.7 8 +38 +38 очень
жарко
1004.1 966.9
08 17.02 Ю 4 н/о н/о +41.8 -3.1 6 +38 +38 очень
жарко
1002.9 965.8
09 17.02 ЮЗ 3 н/о н/о +41.1 -3.6 6 +37 +37 очень
жарко
1002.9 965.8
11 17.02 ЮВ 3 н/о н/о +33.1 -4.0 9 +29 +29 жарко 1004.5 967.4
12 17.02 ЮВ 2 н/о н/о +31.2 -4.0 10 +28 +28 жарко 1004.9 967.7
14 17.02 СВ 2 н/о н/о +28.5 -2.6 13 +26 +26 жарко 1005.7 968.5 +43.2
15 17.02 С 3 н/о н/о +28.2 -1.8 14 +25 +25 комфорт 1006.1 968.9
17 17.02 СЗ 4 н/о н/о +28.6 +12.5 37 +30 +30 жарко 1005.4 968.2
18 17.02 СЗ 4 н/о н/о +29.6 +12.9 36 +31 +31 жарко 1005.3 968.1
20 17.02 СЗ 5 н/о н/о +28.4 +14.3 42 +31 +31 душно 1005.6 968.4
21 17.02 СЗ 5 н/о н/о +27.7 +14.3 44 +30 +30 жарко 1005.8 968.6
23 17.02 З 8 н/о н/о +32.9 +16.3 37 +36 +36 очень
душно
1007.2 970.0
00 18.02 З 7 н/о н/о +34.0 +15.4 33 +36 +36 душно 1007.6 970.3
02 18.02 З 5 н/о н/о +40.0 +9.4 16 +38 +38 очень
жарко
1007.0 969.8 +26.5
03 18.02 СЗ 3 н/о н/о +40.2 +6.5 13 +38 +38 очень
жарко
1006.6 969.4
05 18.02 С 4 н/о н/о +41.6 +2.3 9 +38 +38 очень
жарко
1004.3 967.2
06 18.02 СЗ 3 н/о н/о +43.2 +1.9 8 +40 +40 очень
жарко
1004.0 966.8
08 18.02 СЗ 2 н/о н/о +42.6 -2.5 6 +39 +39 очень
жарко
1003.6 966.5
09 18.02 ЮВ 2 н/о н/о +41.8 -3.1 6 +38 +38 очень
жарко
1003.6 966.5
11 18.02 Ю 2 н/о н/о +32.0 -0.9 12 +29 +29 жарко 1004.9 967.7
12 18.02 Ю 2 н/о н/о +32.2 +0.3 13 +29 +29 жарко 1005.1 967.9
14 18.02 штиль 0 н/о н/о +27.0 +1.4 19 +25 +25 комфорт 1005.6 968.4 +43.6
15 18.02 С 3 н/о н/о +27.7 +1.2 18 +26 +26 жарко 1005.6 968.4
17 18.02 СЗ 4 н/о н/о +28.2 +9.0 30 +28 +28 жарко 1005.0 967.8
18 18.02 СЗ 5 н/о н/о +30.5 +11.5 31 +31 +31 жарко 1005.0 967.8
20 18.02 СЗ 6 н/о н/о +29.5 +14.9 41 +32 +32 душно 1005.8 968.6

 

Местоположение метеостанции Раббит Флат (Северная территория, Австралия): широта -20.18 долгота 130.02 высота над уровнем моря 339 м.

В архиве по умолчанию представлена погода в Раббит Флат за последнюю неделю. Архивные данные за месяц целиком и за предыдущие месяцы, начиная с января 2011 года, Вы можете получить, выбрав интересующий диапазон дат из раскрывающегося списка и нажав кнопку "Ввод!".


*Определитесь, кто Вы:
робот инопланетянин человек

Внимание! Время в таблицах - всемирное. Для получения местного времени необходимо прибавить поправку, которая равна 9.5 ч.

Смотрите также архив погоды в соседних городах и на ближайших метеорологических станциях:

Погода в Ладжаману (Северная территория, Австралия) (216 км)
Погода в Холс Крик (Западная Австралия, Австралия) (329 км)
Погода в Кинторе (Северная территория, Австралия) (350 км)
Погода в Аэропорту Аргайл (Западная Австралия, Австралия) (428 км)
Погода в Виктория-Ривер (Северная территория, Австралия) (433 км)
Погода в Теннант-Крике (Северная территория, Австралия) (439 км)
Погода на Виноградной ферма (Северная территория, Австралия) (451 км)
Погода в Кунунарре (Западная Австралия, Австралия) (509 км)
Погода в Фицрой-Кроссинге (Западная Австралия, Австралия) (519 км)
Погода на Базе ВВС Delamere Weapons Range (Северная территория, Австралия) (532 км)

Пояснения к столбцам:

Ветер - указаны скорость ветра в м/с - средняя за 10 мин, порывы в срок и между сроками (в фигурных скобках) и направление, откуда дует ветер: С - северный, СВ - северо-восточный, В - восточный, ЮВ - юго-восточный, Ю - южный, ЮЗ - юго-западный, З - западный, СЗ - северо-западный.
Видимость - горизонтальная дальность видимости в метрах или километрах. При видимости от 1 до 10 км при отсутствии осадков обычно наблюдается дымка, при ухудшении видимости до 1 км и менее - туман. В сухую погоду видимость может ухудшаться дымом, пылью или мглою.
Явления - указаны атмосферные явления, наблюдавшиеся в срок или в последний час перед сроком; фигурными скобками обозначены явления, наблюдавшиеся между сроками (за 1-3 часа до срока); квадратными скобками обозначены град или гололедные отложения с указанием их диаметра в мм.
Облачность - указаны через наклонную черту общая и нижняя облачность в баллах и высота нижней границы облаков в метрах; квадратными скобками обозначены формы облаков: Ci - перистые, Cs - перисто-слоистые, Cc - перисто-кучевые, Ac - высококучевые, As - высокослоистые, Sc - слоисто-кучевые, Ns - слоисто-дождевые, Cu - кучевые, Cb - кучево-дождевые. Подробнее классификацию облаков см. в Атласе облаков (PDF).
T - Температура воздуха - температура, измеренная на высоте 2 м над землей.
Td - Температура точки росы - температура, при понижении до которой содержащийся в воздухе водяной пар достигнет насыщения.
f - Относительная влажность воздуха - влажноcть воздуха, измеренная на высоте 2 м над землей.
Te - Эффективная температура - температура, которую ощущает одетый по сезону человек в тени. Характеристика душности погоды. При расчете учитывается влияние влажности воздуха и скорости ветра на теплоощущения человека.
Tes - Эффективная температура на солнце - температура, которую ощущает человек, с поправкой на солнечный нагрев. Характеристика знойности погоды. Зависит от высоты солнца над горизонтом, облачности и скорости ветра. Ночью, в пасмурную погоду, а также при ветре 12 м/с и более поправка равна нулю.
P - Атмосферное давление - приведенное к уровню моря атмосферное давление.
Po - Атмосферное давление - измеренное на уровне метеостанции атмосферное давление.
Tmin - Минимальная температура - минимум температуры воздуха на высоте 2 м над землей.
Tmax - Максимальная температура - максимум температуры воздуха на высоте 2 м над землей.
R - Количество осадков - Количество выпавших осадков за период времени, мм. При наведении курсора мыши на число - период времени, за который выпало указанное количество осадков.
R24 - Количество осадков - Количество выпавших осадков за 24 часа, мм.
S - Снежный покров - Высота снежного покрова, см. При наведении курсора мыши на число - состояние снежного покрова и степень покрытия местности в баллах.